SCP
2 1 2 2 1 1 0 0 0 0 0 0 0 0 0 0 0 0 0 0 1 1 1 1 2 2 2 2 1 1 1 1 1 1 1 1 1 1 1 1 1 0 0 0 0 0 0 0 1
1 1 2 1 1 1 0 1 1 0 0 0 0 0 0 0 0 0 0 0 1 1 1 1 1 2 2 2 1 1 1 1 1 1 1 1 1 1 1 1 1 0 0 0 0 0 0 0 0
1 1 1 1 1 0 1 1 1 0 0 0 0 0 0 0 0 0 0 0 1 1 1 1 2 2 2 1 1 1 1 1 1 1 1 1 1 1 1 1 1 0 0 0 0 0 0 0 0
1 1 1 1 0 0 1 1 1 0 0 0 0 0 0 0 0 0 0 0 1 1 1 1 2 1 1 1 1 1 1 2 2 1 1 1 1 1 1 1 1 1 0 0 1 1 1 1 1
1 1 1 0 0 0 0 1 0 0 0 0 0 0 0 0 0 0 0 1 1 1 1 1 1 1 1 1 1 1 1 2 1 1 1 1 1 1 1 1 1 1 0 1 1 1 1 1 1
1 1 1 0 0 0 0 0 0 0 0 0 0 0 0 0 0 0 0 1 1 1 1 1 1 1 1 1 1 1 1 1 1 1 1 1 1 1 1 1 1 0 0 0 1 1 1 1 1
1 1 1 0 0 0 0 0 0 0 0 0 0 0 0 0 1 0 0 1 1 1 1 1 1 1 1 1 1 1 1 1 1 1 1 1 1 1 1 1 1 0 0 0 0 0 0 0 0
1 1 1 1 0 0 0 0 0 0 0 0 0 0 0 1 1 1 1 1 1 1 1 1 1 1 1 1 1 1 1 1 1 1 1 1 1 1 0 0 0 0 0 0 0 0 0 0 0
1 1 1 1 0 0 0 0 0 0 1 1 0 0 0 1 1 1 1 1 1 1 1 1 1 1 1 1 1 1 1 0 0 0 1 1 1 1 0 0 0 0 0 0 0 1 1 0 0
0 1 1 1 1 0 0 0 0 0 1 1 1 1 1 1 1 1 1 1 1 1 1 1 1 1 1 1 1 1 1 0 0 0 1 1 1 0 0 0 0 0 0 0 1 1 1 1 0
0 1 1 1 1 1 1 1 1 1 1 1 1 1 1 1 0 0 1 1 1 1 1 1 1 1 1 1 1 1 1 1 0 0 0 0 0 0 0 0 0 0 0 0 0 0 0 0 0
0 1 1 1 1 1 1 1 1 1 1 1 1 1 1 1 1 1 1 1 1 1 1 1 1 1 1 1 1 1 1 1 0 0 0 0 0 0 0 0 0 0 0 0 0 0 0 0 0
0 1 1 1 1 1 1 1 1 1 1 1 1 1 1 1 1 1 1 1 1 1 1 1 1 1 2 2 1 1 1 1 0 0 0 0 0 0 0 0 0 0 0 0 0 0 0 0 0
0 0 1 2 2 1 1 1 1 1 1 1 1 1 1 1 1 1 1 1 1 1 1 1 1 2 2 2 2 1 1 1 0 0 0 0 0 0 0 0 0 0 0 0 0 0 0 0 0
0 1 1 2 2 2 2 1 1 1 1 1 1 0 0 0 0 0 0 0 1 1 1 1 1 2 3 3 2 2 1 1 1 0 0 0 0 0 0 0 0 0 0 0 0 0 0 0 0
0 1 1 1 1 1 1 1 1 0 0 0 0 0 0 0 0 0 0 1 1 1 1 1 1 2 3 4 3 2 2 1 1 1 0 0 0 0 0 0 0 0 0 0 0 0 0 0 0
1 1 1 1 1 1 1 1 1 0 0 0 0 0 0 0 0 0 1 1 1 1 1 1 1 1 3 4 3 2 2 1 1 1 1 0 0 0 0 0 0 0 0 0 0 0 0 0 0
0 1 1 1 1 1 1 1 1 0 0 0 0 0 0 0 0 0 1 1 1 1 2 2 1 1 2 3 3 2 1 1 1 1 1 0 0 1 0 0 0 0 0 0 0 0 0 0 0
0 0 1 1 1 1 1 1 0 0 0 0 0 0 0 0 0 1 1 1 1 2 2 2 1 1 2 2 3 2 1 1 1 2 1 1 1 1 0 0 0 0 0 0 0 0 0 0 0
0 0 1 1 1 1 1 0 0 0 0 0 0 0 0 0 1 1 1 1 1 2 2 2 2 2 1 1 1 1 1 1 1 2 2 1 1 1 1 0 1 1 1 1 1 1 0 0 0
0 0 0 1 1 1 1 0 0 0 0 0 0 0 0 0 1 1 1 1 2 2 2 2 2 2 2 1 1 1 1 1 1 2 2 2 1 1 1 1 1 1 1 1 1 1 1 1 0
0 0 0 1 1 1 1 0 0 0 0 0 0 0 0 0 0 1 1 1 2 2 2 2 2 2 2 1 1 1 1 1 2 2 2 2 2 1 1 1 1 1 1 1 1 1 1 1 1
1 1 0 0 1 1 1 0 0 0 0 0 0 0 0 0 0 1 1 1 2 2 2 2 2 3 2 2 2 2 2 2 2 2 2 2 2 2 1 1 2 1 1 0 1 1 1 1 1
0 1 0 0 0 1 0 0 0 0 0 0 0 0 0 0 1 1 1 2 2 2 2 2 2 3 3 2 2 2 2 2 2 2 2 2 2 2 2 2 2 1 1 1 0 1 1 1 1
0 0 0 0 0 0 0 0 0 0 0 0 0 0 0 0 1 1 2 2 2 2 2 2 2 3 3 3 3 2 2 2 2 2 2 2 2 2 2 2 1 1 1 1 1 1 1 1 1
0 0 0 0 0 0 0 0 0 0 0 0 0 0 0 0 1 1 2 1 1 2 2 2 2 2 2 2 2 2 2 2 1 1 1 2 2 2 2 2 2 1 1 1 1 1 2 1 1
0 0 0 0 0 0 0 0 0 0 0 0 0 0 0 0 1 1 1 1 1 1 2 2 2 2 2 2 2 2 1 1 1 1 1 2 2 2 2 2 2 1 1 1 1 2 2 1 1
0 0 0 0 0 0 0 0 0 0 0 0 0 0 0 0 1 1 1 1 1 1 2 2 2 2 2 1 1 1 1 1 2 2 2 1 2 2 2 2 2 1 1 1 1 2 2 1 1
0 0 0 0 0 0 0 0 0 0 0 0 0 0 0 1 1 1 1 1 1 1 1 2 2 1 1 1 1 1 1 1 2 2 1 1 1 2 2 2 2 1 1 1 1 1 1 1 1
0 0 0 0 0 0 0 0 0 0 0 0 0 0 1 1 1 1 1 1 1 1 1 2 2 1 1 1 0 1 1 1 2 2 1 1 1 2 3 2 2 1 1 1 1 1 1 1 1
Wind_Speed
10 10 7 3 2 0 6 7 8 7 8 8 8 9 12 12 9 7 3 3 7 10 11 10 9 8 8 8 8 8 8 8 8 8 8 8 8 8 7 7 7 7 6 6 7 7 7 7 7
10 7 4 3 2 2 6 7 8 9 7 6 8 10 11 10 10 8 4 4 7 10 10 9 9 9 8 8 8 8 8 8 8 8 8 8 7 7 7 7 7 7 7 7 7 7 7 7 7
12 7 4 2 3 5 6 8 7 8 5 5 8 10 9 7 9 6 4 5 7 10 11 10 9 9 8 7 8 8 8 8 8 8 8 7 7 7 7 7 7 7 7 7 7 7 7 7 7
6 4 3 1 6 8 8 7 5 7 6 7 8 9 9 9 7 7 6 7 8 10 10 9 9 8 8 7 7 7 7 7 7 7 7 7 7 7 7 7 8 8 8 8 8 7 8 8 8
4 4 1 3 7 8 7 7 6 7 7 8 10 11 10 9 9 8 7 7 7 8 9 9 9 8 8 7 7 7 7 7 7 7 7 7 7 7 7 7 7 7 8 8 8 8 9 9 8
3 3 0 4 6 6 6 6 6 8 7 7 8 10 8 8 8 6 7 6 6 7 8 9 10 9 8 8 7 7 6 6 6 6 6 6 6 6 6 6 7 7 8 8 8 8 9 9 8
4 2 1 5 5 5 5 5 6 6 6 6 6 8 8 9 6 5 6 5 5 6 6 7 8 8 9 9 8 7 7 6 5 5 5 5 5 5 6 6 7 8 8 8 8 8 9 8 7
4 2 1 4 4 4 4 5 6 5 6 6 4 6 7 8 7 6 6 6 5 4 4 5 6 7 7 7 8 8 7 6 5 4 4 4 5 5 6 7 7 8 8 8 8 8 8 8 6
4 1 2 3 3 4 4 5 5 5 6 6 8 10 10 9 7 6 5 4 4 4 3 4 4 5 6 6 8 8 7 6 6 5 5 3 2 4 5 8 8 8 8 8 8 8 7 6 4
2 1 3 4 4 4 4 3 4 4 5 6 8 10 10 8 7 6 5 5 4 4 3 4 4 5 4 4 5 4 4 4 3 3 3 2 2 3 6 8 8 8 8 7 6 6 5 3 2
0 2 3 5 5 4 3 3 4 4 3 4 6 8 8 6 5 5 4 5 4 4 3 3 3 4 4 3 3 2 2 2 1 2 3 3 3 3 4 3 4 4 4 2 3 3 1 2 3
1 2 2 4 4 2 3 3 5 4 4 5 6 7 7 5 4 4 4 5 5 4 3 3 3 3 4 3 3 2 2 1 1 1 3 2 2 2 2 2 3 2 1 1 2 1 3 4 5
2 2 2 3 3 3 4 3 3 3 4 4 5 5 5 5 3 3 5 5 5 3 3 3 3 3 3 3 2 3 2 2 2 1 2 3 2 2 2 2 2 2 2 2 2 3 5 5 5
2 2 2 2 3 2 3 1 2 2 3 5 5 5 4 3 3 3 4 4 4 4 4 3 3 3 3 2 2 2 3 2 2 2 2 3 2 2 2 3 2 2 2 2 3 4 4 4 4
3 4 4 4 4 3 2 0 2 3 4 5 5 5 4 3 3 3 4 4 4 4 4 3 3 3 3 2 2 3 2 2 2 2 2 2 2 3 3 3 3 2 3 3 3 4 3 4 5
7 7 5 5 5 4 3 2 2 4 4 3 3 5 4 3 3 3 3 3 3 4 4 3 3 3 3 3 2 2 2 3 2 2 2 2 3 4 4 3 2 3 3 3 3 3 3 4 4
8 7 6 5 6 4 4 2 3 4 4 3 3 4 4 4 4 3 3 3 2 3 4 4 4 3 3 3 3 2 2 3 2 2 1 2 3 4 4 3 2 4 3 3 3 3 4 4 4
6 5 4 4 6 5 3 3 4 4 4 3 3 3 4 4 4 4 4 3 3 3 3 3 4 4 4 3 3 2 2 2 2 2 2 2 2 4 4 3 3 4 3 3 3 4 3 3 3
7 5 4 1 4 2 3 3 4 5 4 3 3 3 3 3 5 4 4 4 4 3 2 2 3 3 3 2 2 2 1 1 2 2 2 2 3 4 4 3 4 4 3 3 4 3 4 3 3
7 7 5 3 3 2 4 4 3 5 5 3 3 3 3 3 4 4 4 4 3 3 1 2 3 3 3 2 2 2 2 2 2 2 2 1 2 3 4 4 3 4 3 3 4 3 2 1 1
7 6 5 4 2 4 5 5 5 6 5 4 2 2 3 3 4 4 4 4 3 2 1 2 2 3 3 3 1 1 2 2 2 2 1 1 2 3 3 3 3 4 4 3 3 3 3 1 0
6 4 5 5 5 5 6 4 4 7 6 5 4 3 3 4 4 4 4 4 3 2 1 2 2 2 3 2 2 2 2 2 2 2 2 2 2 3 3 3 3 3 3 3 4 3 2 2 1
5 4 6 8 7 8 8 5 3 7 7 6 5 4 3 4 4 5 4 4 3 3 1 1 2 2 3 3 2 2 2 1 2 2 3 3 2 2 3 3 3 3 3 3 3 3 2 2 2
5 5 7 8 6 7 9 6 2 4 5 6 6 5 4 3 4 5 4 4 3 3 2 1 2 2 2 2 2 2 2 2 2 2 3 2 2 2 3 3 3 3 3 3 3 3 3 2 2
5 5 4 5 6 5 4 3 3 7 7 6 6 5 5 4 4 4 4 3 4 3 2 1 2 2 2 1 1 2 3 3 3 4 3 3 2 2 3 3 2 3 3 3 3 3 3 2 2
6 7 5 4 3 1 2 2 6 9 7 6 6 5 5 5 4 4 4 3 3 3 3 2 2 2 2 1 1 2 2 2 2 3 3 4 3 3 4 3 3 3 4 4 3 2 3 2 2
6 6 7 7 9 5 3 5 7 7 7 5 5 5 4 4 4 4 3 3 3 3 3 2 2 2 2 2 2 2 1 2 2 3 2 3 3 4 5 4 4 4 4 4 4 2 3 2 2
6 6 5 4 4 5 4 3 5 8 6 5 5 4 4 3 3 3 3 2 2 2 2 2 2 2 2 1 1 1 1 1 1 2 3 3 3 4 5 5 5 4 4 4 4 3 3 3 2
6 6 5 4 5 4 3 2 6 7 6 5 4 4 3 3 2 2 2 2 2 2 2 2 2 1 1 2 1 1 1 1 1 1 1 2 3 4 4 4 5 5 5 4 4 4 4 4 3
5 5 5 4 5 5 3 2 6 6 6 4 4 3 2 3 2 2 2 2 1 1 1 2 2 1 1 2 2 1 1 2 2 2 2 2 2 3 4 4 4 4 5 4 5 4 4 4 3
Wind_Direction
271 251 245 246 258 205 65 63 61 49 53 51 40 56 65 49 46 78 108 65 86 101 106 95 84 82 82 80 79 79 77 79 79 78 76 78 78 79 78 79 81 76 77 79 79 78 79 77 74
278 276 269 238 257 76 69 70 64 55 54 68 61 59 70 62 65 91 101 73 86 97 98 95 91 85 82 81 83 80 78 80 80 82 80 80 81 79 77 78 79 78 79 80 82 84 84 82 78
267 268 264 260 47 65 75 73 77 75 56 59 74 62 53 61 68 86 109 103 91 96 100 101 99 92 87 85 87 85 83 82 82 82 80 80 81 81 79 79 81 82 83 85 87 86 84 83 79
268 259 246 51 66 67 77 83 85 90 71 58 73 76 67 57 78 104 116 108 102 102 105 110 109 102 97 95 92 89 86 83 81 81 80 79 80 83 84 82 83 85 85 86 86 88 84 80 74
244 256 238 90 75 71 64 68 74 75 69 67 76 89 87 79 90 102 102 95 93 102 112 119 123 118 114 108 100 92 89 86 84 84 83 82 83 84 85 84 86 85 87 88 86 88 89 83 72
267 255 239 92 86 76 71 60 64 75 75 77 90 99 98 103 97 97 97 95 99 105 115 126 136 133 129 121 112 102 99 97 92 90 89 90 90 89 88 88 90 91 91 93 91 92 92 89 80
274 295 103 100 98 83 70 60 62 70 69 62 82 101 114 112 108 114 111 105 100 108 122 136 142 141 138 134 128 121 114 112 109 105 104 108 109 106 103 97 94 95 97 98 97 98 97 92 84
286 301 65 95 105 92 80 68 70 65 68 62 53 92 115 123 136 131 119 111 106 107 113 124 141 144 143 141 140 137 134 134 136 135 133 132 133 129 120 108 103 104 104 106 104 105 105 101 93
274 288 54 75 94 100 107 99 89 73 80 74 69 82 107 123 137 133 124 120 121 107 106 117 121 126 134 143 145 151 153 157 157 162 169 164 147 135 123 113 115 114 114 116 117 119 120 117 108
254 55 67 70 83 96 98 99 110 110 98 97 96 102 118 135 143 143 141 138 130 123 115 109 115 118 123 123 134 151 152 159 175 159 160 156 117 107 111 119 120 120 121 128 135 139 143 139 124
118 86 70 74 67 87 104 97 82 85 90 99 115 119 126 138 143 140 136 125 111 102 97 99 114 122 117 112 115 111 113 136 149 124 136 120 107 114 118 128 130 126 133 137 136 149 138 114 90
113 80 86 86 74 68 79 78 74 64 68 84 102 120 131 143 150 144 127 112 107 102 102 92 90 105 112 111 114 124 120 118 128 125 113 107 106 104 114 124 124 123 125 100 101 100 82 75 78
161 145 107 102 108 92 82 75 85 81 98 104 114 124 136 139 139 131 118 117 119 118 114 106 103 92 104 113 131 131 122 127 124 102 107 114 117 120 122 117 114 122 119 102 74 76 72 66 63
148 156 166 164 151 138 121 115 142 136 141 136 132 136 137 136 143 130 120 125 131 137 131 121 107 99 103 107 132 124 124 130 122 112 103 115 118 121 118 104 102 99 102 98 89 84 80 76 70
207 204 196 196 188 179 149 202 186 159 161 151 148 142 138 145 139 121 120 124 129 126 118 116 124 110 104 102 102 110 121 118 116 110 98 100 109 106 98 102 101 99 98 91 83 83 80 86 81
224 223 214 199 195 178 196 242 146 146 154 150 157 144 146 145 133 122 114 113 114 122 124 123 112 108 110 112 100 97 113 106 106 101 98 107 106 96 94 93 95 93 91 84 83 85 79 75 76
226 228 220 185 182 186 196 199 146 151 168 172 174 156 159 151 134 124 99 97 108 109 113 118 116 126 113 110 101 79 91 105 106 98 90 84 105 106 106 105 104 96 91 89 94 82 88 86 81
249 243 228 191 163 181 204 209 175 170 182 184 165 158 147 145 138 132 116 99 95 83 93 118 118 119 114 108 104 87 73 92 97 96 102 89 82 97 101 108 102 99 92 82 84 89 89 96 98
289 281 274 188 141 173 222 235 187 167 175 182 176 164 154 142 130 121 117 114 95 92 96 110 106 109 113 116 121 127 124 108 97 78 84 99 102 107 106 104 104 103 110 119 112 105 105 103 107
269 265 262 233 170 211 244 250 210 171 176 179 186 159 143 129 115 114 108 103 94 94 108 126 118 117 120 130 145 149 142 134 119 105 90 108 113 113 120 118 115 115 116 113 111 118 116 132 137
260 264 272 270 245 231 239 248 216 173 163 163 177 154 142 137 127 124 125 112 111 98 91 97 108 106 112 126 113 121 104 99 101 119 123 138 115 116 117 125 131 133 129 131 134 141 141 157 211
267 281 273 269 265 255 230 253 194 162 162 167 163 146 136 131 123 123 114 112 117 117 114 99 101 108 111 121 124 129 128 143 160 157 151 146 125 120 122 123 124 133 135 145 161 155 152 141 157
286 303 273 260 260 267 250 248 201 158 166 163 150 147 141 131 127 125 123 123 124 112 102 101 95 99 113 122 134 132 135 162 164 154 148 146 144 137 138 141 138 132 138 156 158 145 154 158 161
291 272 259 251 255 256 245 234 173 152 148 141 136 139 131 119 120 119 123 126 119 114 100 92 102 101 112 134 152 155 169 181 153 150 151 152 153 153 154 155 160 159 159 162 160 159 163 163 157
247 257 248 218 214 235 213 191 107 100 94 106 123 129 123 109 107 107 110 124 125 124 125 124 120 121 122 158 168 182 182 188 171 167 170 165 167 167 172 169 173 166 161 161 157 159 161 169 165
254 254 267 286 278 275 181 157 113 110 101 104 115 118 115 111 112 109 108 108 125 133 142 151 135 147 162 188 199 202 188 182 168 170 171 177 180 174 168 169 182 173 165 167 156 152 166 172 176
265 261 271 282 289 279 227 129 127 125 116 104 103 107 116 120 117 111 111 114 118 139 159 166 165 173 181 202 202 204 203 196 182 180 186 177 181 172 166 179 188 185 180 176 160 166 169 159 157
260 286 287 271 284 275 250 204 157 143 134 118 105 105 111 111 118 119 118 116 119 136 165 173 184 187 186 204 223 204 187 206 201 193 190 184 189 177 169 179 187 186 185 179 164 169 165 164 155
231 246 259 270 265 276 285 55 92 123 116 114 111 101 105 111 113 123 123 128 131 133 152 171 191 187 190 202 220 234 194 207 191 181 173 192 189 180 173 183 186 181 186 178 161 164 166 169 162
243 258 268 268 279 286 288 94 99 97 95 96 98 104 109 116 119 125 133 141 140 147 175 188 189 175 210 214 197 213 210 205 200 196 190 203 197 187 171 184 190 183 181 175 163 171 169 168 171